Meath Environmental Platform

Observations for Trim Patrick St

Time AQI Temp °C Hum % Pres Pa CO μg/m³ H₂S μg/m³ NO μg/m³ NO₂ μg/m³ O₃ μg/m³ SO₂ μg/m³ PM1 μg/m³ PM2.5 μg/m³ PM10 μg/m³
Saturday 8 August 2026
06:37 1 15.2 73 38,460 0.23 1.01 3.02 19.12 23.34 0 2.86 7.13 7.84
06:36 1 15.1 73 38,460 0.24 0.78 2.99 18 18.71 0 3.71 7.12 7.83
06:35 1 15.1 73 38,460 0.24 1.27 3 24 18.99 0 3.71 7.11 7.82
06:34 1 15.1 73 38,460 0.24 0 3.08 12.6 21.92 0 3.71 7.82 8.6
06:33 1 15.1 73 38,460 0.28 0.91 3.1 18.47 20.22 0 3.71 7.81 8.59
06:32 1 15.1 73 38,460 0.37 0 3.1 15.52 20.76 0 3.71 7.09 7.79
06:31 1 15.1 73 38,460 0.23 0 3.09 13.57 22.89 0 2.86 7.79 8.57
06:30 1 15.1 74 38,460 0.24 0 3.08 18.12 18.8 0 3.71 7.07 7.78
06:29 1 15 74 38,460 0.24 0 3.1 11.68 23.88 0 4.57 8.5 9.35
06:28 1 15.1 73 38,460 0.23 0 3.09 14.36 23.2 0 3.71 7.79 8.57
06:27 1 15 74 38,460 0.25 0 3.12 12.54 23.06 0 2.86 6.36 6.99
06:26 1 15 74 38,460 0.23 0 3.13 14.44 19.23 0 4.57 8.5 9.35
06:25 1 15 74 38,460 0.23 0 3.11 10.64 25.42 0 4.57 8.49 9.34
06:24 1 15 74 38,460 0.23 1.09 3.1 22.32 19.38 0 4.57 7.77 8.55
06:23 1 15 74 38,460 0.24 1.14 3.12 18.57 21.84 0 2.86 8.5 9.35
06:22 1 15 74 38,460 0.25 0 3.1 14.2 21.6 0 3.71 8.49 9.34
06:21 1 15 74 38,460 0.23 0 3.05 13.09 24.69 0 3.71 7.07 7.77
06:20 1 15 74 38,460 0.23 0 2.97 15.33 21.95 0 3.71 7.76 8.54
06:19 1 14.9 74 38,460 0.24 0 3.13 13.36 20.34 0 3.71 7.04 7.75
06:18 1 14.9 74 38,460 0.23 0 3.13 13.89 21.34 0 3.71 7.76 8.53